Terminal Aerodrome Forecast
Issued by NWS Grand Forks, ND

Home | Current Version | Previous Version | Text Only | Print | Product List | Glossary Off
Versions: 1 2 3 4 5 6 7 8 9 10 11 12 13 14 15 16 17 18 19 20

000
FTUS43 KFGF 281100
TAFFAR
TAF
KFAR 281120Z 2812/2912 33015G25KT P6SM OVC014
     FM281500 32022G32KT P6SM OVC015
     FM290000 32015G24KT P6SM OVC025
     FM290600 32012KT P6SM BKN035=

USA.gov is the U.S. government's official web portal to all federal, state and local government web resources and services.